GW4252 Weather Reports


Display with metric or nautical units.
time (UTC)temp
F
wind
direction
speed
MPH
gust
MPH
rain 1hr
in
rain 24hr
in
rain mn
in
humidity
%
barometer
mb
20260905211730 79 29 9.0 13.0 0.00 0.00 0.00 100 1010.7
20260905210731 80 24 4.0 14.0 0.00 0.00 0.00 100 1010.6
20260905210231 80 12 5.0 15.0 0.00 0.00 0.00 100 1010.6
20260905205230 81 43 3.0 9.0 0.00 0.00 0.00 100 1010.5
20260905204730 81 5 3.0 10.0 0.00 0.00 0.00 100 1010.4
20260905204231 81 355 10.0 11.0 0.00 0.00 0.00 100 1010.4
20260905203730 81 319 3.0 11.0 0.00 0.00 0.00 100 1010.4
20260905203230 81 341 11.0 11.0 0.00 0.00 0.00 100 1010.3
20260905202731 82 350 3.0 12.0 0.00 0.00 0.00 100 1010.3
20260905202231 82 325 3.0 12.0 0.00 0.00 0.00 100 1010.3
20260905201731 82 5 8.0 13.0 0.00 0.00 0.00 100 1010.4
20260905200729 83 360 9.0 11.0 0.00 0.00 0.00 100 1010.4
20260905200233 83 41 9.0 11.0 0.00 0.00 0.00 100 1010.5
20260905195730 82 44 6.0 11.0 0.00 0.00 0.00 100 1010.4
20260905195232 82 346 6.0 10.0 0.00 0.00 0.00 100 1010.3
20260905194731 82 28 1.0 11.0 0.00 0.00 0.00 100 1010.3
20260905194231 82 9 2.0 11.0 0.00 0.00 0.00 100 1010.3
20260905193731 81 5 9.0 11.0 0.00 0.00 0.00 100 1010.3
20260905192732 82 282 4.0 11.0 0.00 0.00 0.00 100 1010.3
20260905192231 82 360 2.0 11.0 0.00 0.00 0.00 100 1010.4
20260905191732 82 37 2.0 14.0 0.00 0.00 0.00 100 1010.4
20260905190732 82 43 1.0 9.0 0.00 0.00 0.00 100 1010.5
20260905185730 82 51 2.0 13.0 0.00 0.06 0.00 100 1010.4
20260905184730 81 346 3.0 11.0 0.00 0.06 0.00 100 1010.4
20260905184230 80 36 5.0 13.0 0.00 0.06 0.00 100 1010.5
20260905183731 79 321 3.0 13.0 0.00 0.06 0.00 100 1010.5
20260905183230 78 347 6.0 12.0 0.00 0.06 0.00 100 1010.7
20260905182730 79 322 5.0 12.0 0.00 0.06 0.00 100 1010.6
20260905181731 80 241 2.0 10.0 0.00 0.06 0.00 100 1010.6
20260905180730 81 343 1.0 4.0 0.00 0.06 0.00 100 1010.8
20260905180231 80 28 0.0 14.0 0.00 0.12 0.00 100 1010.8
20260905175730 80 327 1.0 14.0 0.00 0.12 0.00 100 1010.9
20260905175230 80 360 9.0 12.0 0.00 0.12 0.00 100 1010.9
20260905174731 79 360 1.0 12.0 0.00 0.12 0.00 100 1010.9
20260905173729 78 329 2.0 13.0 0.00 0.12 0.00 100 1011.0
20260905173231 78 62 9.0 10.0 0.00 0.12 0.00 100 1010.9
20260905172229 78 9 5.0 9.0 0.00 0.12 0.00 100 1011.2
20260905171732 78 57 2.0 8.0 0.00 0.12 0.00 100 1011.1
20260905171231 77 77 5.0 10.0 0.00 0.12 0.00 100 1011.1
20260905170230 78 15 4.0 12.0 0.00 0.16 0.00 100 1011.2
20260905165731 79 348 9.0 11.0 0.00 0.16 0.00 100 1011.3
20260905165229 80 34 2.0 11.0 0.00 0.16 0.00 100 1011.3
20260905163730 78 32 9.0 13.0 0.00 0.16 0.00 100 1011.2
20260905162730 78 348 10.0 13.0 0.00 0.16 0.00 100 1011.2
20260905162230 79 327 10.0 11.0 0.00 0.16 0.00 100 1011.3
20260905161731 80 343 6.0 11.0 0.00 0.16 0.00 100 1011.1
20260905161230 80 289 8.0 11.0 0.00 0.16 0.00 100 1011.1
20260905160729 79 355 6.0 13.0 0.00 0.16 0.00 100 1011.1
20260905160233 78 9 8.0 13.0 0.00 0.16 0.00 100 1011.1
20260905155730 78 115 3.0 12.0 0.00 0.16 0.00 100 1011.1
20260905155230 78 315 8.0 10.0 0.00 0.16 0.00 100 1011.3
20260905154732 79 254 5.0 10.0 0.00 0.16 0.00 100 1011.1
20260905154230 78 323 2.0 16.0 0.00 0.16 0.00 100 1011.2
20260905153730 78 14 13.0 13.0 0.00 0.16 0.00 100 1011.2
20260905153230 78 347 5.0 14.0 0.00 0.16 0.00 100 1011.2
20260905152731 77 341 9.0 14.0 0.00 0.16 0.00 100 1011.2
20260905152231 76 13 7.0 11.0 0.00 0.16 0.00 100 1011.3
20260905151731 77 335 1.0 13.0 0.00 0.16 0.00 100 1011.3
20260905150232 78 355 6.0 15.0 0.00 0.16 0.00 100 1011.4
20260905145730 78 355 10.0 15.0 0.00 0.16 0.00 100 1011.4
20260905144730 78 355 5.0 11.0 0.00 0.16 0.00 100 1011.3
20260905144231 78 20 5.0 10.0 0.00 0.16 0.00 100 1011.2
20260905143731 78 35 6.0 11.0 0.00 0.16 0.00 100 1011.2
20260905143230 77 68 6.0 11.0 0.00 0.16 0.00 100 1011.4
20260905142729 76 35 6.0 13.0 0.00 0.16 0.00 100 1011.3
20260905142230 75 40 2.0 13.0 0.00 0.16 0.00 100 1011.3
20260905141730 75 40 4.0 7.0 0.00 0.16 0.00 100 1011.3
20260905141230 74 44 1.0 11.0 0.00 0.16 0.00 100 1011.2
20260905140730 74 360 1.0 11.0 0.00 0.16 0.00 100 1011.2
20260905140230 74 5 3.0 11.0 0.00 0.16 0.00 100 1011.2
20260905135730 74 15 7.0 15.0 0.00 0.16 0.00 100 1011.2
20260905134731 76 40 12.0 14.0 0.00 0.16 0.00 100 1011.3
20260905134229 75 346 5.0 11.0 0.00 0.16 0.00 100 1011.2
20260905133231 74 350 4.0 13.0 0.00 0.16 0.00 100 1011.3
20260905131730 73 27 4.0 8.0 0.00 0.16 0.00 100 1011.4
20260905131232 73 14 3.0 6.0 0.00 0.16 0.00 100 1011.4
20260905130730 73 328 1.0 11.0 0.00 0.16 0.00 100 1011.4
20260905130230 73 13 1.0 11.0 0.00 0.17 0.00 100 1011.5
20260905125729 73 5 2.0 6.0 0.00 0.17 0.00 100 1011.6
20260905125229 73 360 3.0 6.0 0.00 0.17 0.00 100 1011.6
20260905124729 73 28 3.0 5.0 0.00 0.17 0.00 100 1011.6
20260905124229 73 37 0.0 5.0 0.00 0.17 0.00 100 1011.8
20260905123729 73 41 1.0 5.0 0.00 0.17 0.00 100 1011.9
20260905122729 73 18 3.0 4.0 0.00 0.17 0.00 100 1011.9
20260905122229 73 18 2.0 6.0 0.00 0.17 0.00 100 1011.9
20260905121733 72 5 4.0 6.0 0.00 0.17 0.00 100 1012.0
20260905121228 71 38 0.0 5.0 0.00 0.17 0.00 100 1012.1
20260905120729 71 36 1.0 5.0 0.00 0.17 0.00 100 1012.0
20260905120232 70 11 2.0 6.0 0.00 0.17 0.00 100 1012.0
20260905115730 70 34 1.0 6.0 0.00 0.17 0.00 100 1011.7
20260905115229 69 29 0.0 5.0 0.00 0.17 0.00 100 1011.8
20260905114730 68 339 0.0 0.0 0.00 0.17 0.00 100 1011.7
20260905114230 67 288 0.0 0.0 0.00 0.17 0.00 100 1011.6
20260905113730 66 288 0.0 1.0 0.00 0.17 0.00 100 1011.6
20260905113230 66 288 0.0 3.0 0.00 0.17 0.00 100 1011.5
20260905112729 65 287 0.0 4.0 0.00 0.17 0.00 100 1011.5
20260905112229 65 287 0.0 4.0 0.00 0.17 0.00 100 1011.5
20260905111730 65 355 2.0 2.0 0.00 0.17 0.00 100 1011.3
20260905111230 65 355 0.0 2.0 0.00 0.17 0.00 100 1011.3
20260905110730 65 355 0.0 6.0 0.00 0.17 0.00 100 1011.3
20260905110229 64 355 1.0 8.0 0.00 0.17 0.00 100 1011.2
20260905105229 64 271 0.0 4.0 0.00 0.17 0.00 100 1011.1
20260905104729 64 355 1.0 4.0 0.00 0.17 0.00 100 1011.0
20260905104229 64 277 0.0 4.0 0.00 0.17 0.00 100 1011.0
20260905103729 64 316 0.0 4.0 0.00 0.17 0.00 100 1010.9
20260905103229 64 355 1.0 2.0 0.00 0.17 0.00 100 1011.0
20260905102729 65 355 0.0 2.0 0.00 0.17 0.00 100 1011.0
20260905101730 65 355 0.0 4.0 0.00 0.17 0.00 100 1011.0
20260905095729 66 5 0.0 7.0 0.00 0.17 0.00 100 1010.6
20260905095230 66 14 3.0 7.0 0.00 0.17 0.00 100 1010.5
20260905094729 66 342 5.0 6.0 0.00 0.17 0.00 100 1010.5
20260905094230 66 342 3.0 5.0 0.00 0.17 0.00 100 1010.5
20260905093730 66 5 0.0 4.0 0.00 0.17 0.00 100 1010.5
20260905092729 67 5 0.0 5.0 0.00 0.17 0.00 100 1010.4
20260905092230 67 5 0.0 5.0 0.00 0.17 0.00 100 1010.4
20260905091730 67 350 2.0 5.0 0.00 0.17 0.00 100 1010.4
20260905091229 67 348 2.0 3.0 0.00 0.17 0.00 100 1010.4
20260905085729 68 26 3.0 6.0 0.00 0.17 0.00 100 1010.4
20260905085229 68 355 3.0 9.0 0.00 0.17 0.00 100 1010.4
20260905084730 68 17 4.0 10.0 0.00 0.17 0.00 100 1010.4
20260905084228 69 19 4.0 10.0 0.00 0.17 0.00 100 1010.4
20260905083729 69 12 3.0 9.0 0.00 0.17 0.00 100 1010.4
20260905083229 69 36 4.0 8.0 0.00 0.17 0.00 100 1010.5
20260905082229 69 13 7.0 11.0 0.00 0.17 0.00 100 1010.5
20260905081729 69 340 6.0 9.0 0.00 0.17 0.00 100 1010.5
20260905081228 70 5 2.0 11.0 0.00 0.17 0.00 100 1010.5
20260905080729 70 20 9.0 11.0 0.00 0.17 0.00 100 1010.5
20260905075729 70 360 2.0 10.0 0.00 0.18 0.00 100 1010.4
20260905075228 70 355 0.0 10.0 0.00 0.18 0.00 100 1010.5
20260905074729 70 344 2.0 10.0 0.00 0.18 0.00 100 1010.4
20260905074229 70 346 10.0 12.0 0.00 0.18 0.00 100 1010.4
20260905073728 70 336 5.0 14.0 0.00 0.18 0.00 100 1010.4
20260905073228 70 355 9.0 14.0 0.00 0.18 0.00 100 1010.4
20260905072729 70 328 6.0 12.0 0.00 0.18 0.00 100 1010.3
20260905071730 70 323 3.0 13.0 0.00 0.18 0.00 100 1010.4
20260905071230 70 333 4.0 13.0 0.00 0.18 0.00 100 1010.4
20260905070729 70 11 5.0 10.0 0.00 0.18 0.00 100 1010.4
20260905070230 70 9 2.0 11.0 0.00 0.22 0.00 100 1010.4
20260905065229 70 350 6.0 10.0 0.00 0.22 0.00 100 1010.5
20260905064729 70 19 3.0 10.0 0.00 0.22 0.00 100 1010.6
20260905064229 70 14 5.0 10.0 0.00 0.22 0.00 100 1010.7
20260905063728 70 16 2.0 9.0 0.00 0.22 0.00 100 1010.8
20260905062729 70 19 3.0 8.0 0.00 0.22 0.00 100 1010.9
20260905062228 70 34 6.0 8.0 0.00 0.22 0.00 100 1010.8
20260905061729 70 355 2.0 9.0 0.00 0.22 0.00 100 1010.9
20260905061229 70 327 5.0 9.0 0.00 0.22 0.00 100 1010.9
20260905060728 70 9 2.0 8.0 0.00 0.22 0.00 100 1010.9
20260905060230 71 5 5.0 6.0 0.00 0.52 0.00 100 1010.9
20260905055730 71 360 3.0 6.0 0.00 0.52 0.00 100 1010.9
20260905054729 71 360 0.0 8.0 0.00 0.52 0.00 100 1011.1
20260905053729 71 5 3.0 6.0 0.00 0.52 0.00 100 1011.2
20260905053229 71 11 3.0 8.0 0.00 0.52 0.00 100 1011.2
20260905052229 71 355 2.0 9.0 0.00 0.52 0.00 100 1011.2
20260905051730 71 21 4.0 8.0 0.00 0.52 0.00 100 1011.3
20260905050729 71 355 3.0 6.0 0.00 0.52 0.00 100 1011.4
20260905050232 71 355 2.0 4.0 0.00 0.52 0.00 100 1011.4
20260905045730 71 355 1.0 4.0 0.00 0.53 0.00 100 1011.3
20260905045231 71 355 1.0 6.0 0.00 0.53 0.00 100 1011.4
20260905043730 72 22 2.0 6.0 0.00 0.53 0.00 100 1011.5
20260905043232 72 335 4.0 6.0 0.00 0.53 0.00 100 1011.5
20260905042731 72 5 2.0 6.0 0.00 0.53 0.00 100 1011.5
20260905042230 72 9 4.0 9.0 0.00 0.53 0.00 100 1011.6
20260905041730 72 350 5.0 10.0 0.00 0.53 0.00 100 1011.5
20260905041231 72 10 7.0 10.0 0.00 0.53 0.00 100 1011.5
20260905040731 72 24 8.0 11.0 0.00 0.53 0.00 100 1011.5
20260905035733 72 355 5.0 8.0 0.00 0.53 0.53 100 1011.6
20260905035231 72 336 3.0 8.0 0.00 0.53 0.53 100 1011.7
20260905034733 72 315 4.0 8.0 0.00 0.53 0.53 100 1011.7
20260905034231 72 5 4.0 8.0 0.00 0.53 0.53 100 1011.6
20260905033232 72 310 0.0 8.0 0.00 0.53 0.53 100 1011.6
20260905032733 72 23 2.0 10.0 0.00 0.53 0.53 100 1011.6
20260905032232 72 350 5.0 10.0 0.00 0.53 0.53 100 1011.6
20260905031733 72 5 3.0 9.0 0.00 0.53 0.53 100 1011.6
20260905031231 72 332 6.0 9.0 0.00 0.53 0.53 100 1011.6
20260905030731 72 355 1.0 9.0 0.00 0.53 0.53 100 1011.5
20260905025731 72 19 1.0 7.0 0.00 0.56 0.53 100 1011.4
20260905025231 72 29 1.0 6.0 0.00 0.56 0.53 100 1011.3
20260905024732 72 338 1.0 8.0 0.00 0.56 0.53 100 1011.3
20260905023731 72 324 1.0 6.0 0.00 0.56 0.53 100 1011.3
20260905023231 72 281 4.0 6.0 0.00 0.56 0.53 100 1011.3
20260905022232 72 338 4.0 6.0 0.00 0.56 0.53 100 1011.2
20260905021731 73 344 2.0 6.0 0.00 0.56 0.53 100 1011.3
20260905021231 73 349 1.0 6.0 0.00 0.56 0.53 100 1011.3
20260905020731 73 346 1.0 5.0 0.00 0.56 0.53 100 1011.4
20260905020232 72 317 1.0 5.0 0.00 0.56 0.53 100 1011.5
20260905015732 72 346 4.0 4.0 0.00 0.56 0.53 100 1011.4
20260905015231 72 340 2.0 5.0 0.00 0.56 0.53 100 1011.4
20260905014731 72 347 3.0 5.0 0.00 0.56 0.53 100 1011.3
20260905014230 72 334 4.0 4.0 0.00 0.56 0.53 100 1011.4
20260905013231 72 348 0.0 9.0 0.00 0.56 0.53 100 1011.3
20260905012730 72 5 2.0 9.0 0.00 0.56 0.53 100 1011.3
20260905012231 72 334 2.0 4.0 0.00 0.56 0.53 100 1011.3
20260905011731 72 311 0.0 4.0 0.00 0.56 0.53 100 1011.5
20260905011231 72 320 0.0 4.0 0.00 0.56 0.53 100 1011.5
20260905010731 72 320 0.0 4.0 0.00 0.56 0.53 100 1011.5
20260905005732 73 337 1.0 5.0 0.00 0.56 0.53 100 1011.6
20260905005230 73 307 3.0 5.0 0.00 0.56 0.53 100 1011.4
20260905004731 72 304 2.0 5.0 0.00 0.56 0.53 100 1011.4
20260905004230 72 327 0.0 5.0 0.00 0.56 0.53 100 1011.5
20260905003731 73 284 0.0 2.0 0.00 0.56 0.53 100 1011.3
20260905003230 73 281 0.0 3.0 0.00 0.56 0.53 100 1011.4
20260905002731 73 279 0.0 4.0 0.00 0.56 0.53 100 1011.4
20260905002231 73 279 4.0 4.0 0.00 0.56 0.53 100 1011.5
20260905001731 74 279 3.0 3.0 0.00 0.56 0.53 100 1011.3
20260905000731 74 277 2.0 4.0 0.00 0.56 0.53 100 1011.3
20260905000233 75 278 1.0 4.0 0.00 0.56 0.53 100 1011.3
20260904235231 75 275 3.0 4.0 0.00 0.56 0.53 100 1011.3
20260904234730 76 275 3.0 4.0 0.00 0.56 0.53 100 1011.4
20260904234230 76 272 0.0 3.0 0.00 0.56 0.53 100 1011.3
20260904232730 77 269 3.0 6.0 0.00 0.56 0.53 100 1011.3
20260904231730 78 274 3.0 6.0 0.00 0.56 0.53 100 1011.1
20260904231231 78 276 0.0 6.0 0.00 0.56 0.53 100 1011.1
20260904230730 79 277 4.0 7.0 0.00 0.56 0.53 100 1011.1
20260904225731 79 284 6.0 10.0 0.00 0.56 0.53 100 1011.1
20260904225230 79 263 6.0 10.0 0.00 0.56 0.53 100 1011.2
20260904224230 80 336 2.0 11.0 0.00 0.56 0.53 100 1011.2
20260904223730 80 295 2.0 8.0 0.00 0.56 0.53 100 1011.2
20260904223230 80 284 1.0 5.0 0.00 0.56 0.53 100 1011.3
20260904222730 80 291 3.0 8.0 0.00 0.56 0.53 100 1011.2
20260904222230 81 355 1.0 9.0 0.00 0.56 0.53 100 1011.1
20260904221731 81 289 2.0 9.0 0.00 0.56 0.53 100 1011.0
20260904221231 81 270 6.0 11.0 0.00 0.56 0.53 100 1010.9
20260904220731 82 268 2.0 11.0 0.00 0.56 0.53 100 1010.9
20260904215730 82 360 4.0 12.0 0.00 0.56 0.53 100 1010.8
20260904215231 82 5 6.0 12.0 0.00 0.56 0.53 100 1010.7
20260904214730 82 296 2.0 10.0 0.00 0.56 0.53 100 1010.9
20260904214230 82 263 4.0 9.0 0.00 0.56 0.53 100 1011.0
20260904213731 82 332 2.0 8.0 0.00 0.56 0.53 100 1010.9
20260904213231 83 355 2.0 8.0 0.00 0.56 0.53 100 1010.9
20260904212231 83 280 4.0 10.0 0.00 0.56 0.53 100 1010.8